Home > Weather > Bakersfield > Past weeks

Flag for USA Past Weather in Bakersfield, California, USA — Yesterday and Last 2 Weeks

Now
93 °F

Sunny.


Feels Like: 89 °F
Forecast: 67 / 96 °F
Wind: 12 mph from Northwest

Location: Meadows Field

Current Time: Jun 24, 2016 at 4:55:03 PM

Latest Report: Jun 24, 2016 at 3:54 PM


Visibility: 10 mi

Pressure: 29.91 "Hg

Humidity: 16%

Dew Point: 40 °F

Location of BakersfieldLocation

Past Weather in Bakersfield — Graph

°F

Bakersfield Temperature Yesterday

Maximum temperature yesterday: 96 °F (at 5:54 PM)
Minimum temperature yesterday: 68 °F (at 4:54 AM)
Average temperature yesterday: 83 °F

High & Low Weather Summary for the Past Weeks

 TemperatureHumidityPressure
High101 °F (Jun 22, 3:54 PM)73% (Jun 18, 4:54 AM)30.14 "Hg (Jun 18, 4:54 AM)
Low55 °F (Jun 16, 4:54 AM)9% (Jun 23, 11:54 AM)29.77 "Hg (Jun 9, 5:54 PM)
Average78 °F33%29.94 "Hg
* Reported Jun 9 2:54 PM — Jun 24 2:54 PM, Bakersfield, Weather by CustomWeather, © 2016

Note: Actual official high and low records may vary slightly from our data, if they occured in-between our weather recording intervals... More about our weather records

Advertising

Bakersfield Weather History for the Previous 24 Hours

Scroll right to see more
 ConditionsComfort  
Time TempWeatherWind HumidityBarometerVisibility
2:54 PM
Fri, Jun 24
92 °FSunny.12 mph14%29.93 "Hg10 mi
1:54 PM90 °FSunny.9 mph19%29.95 "Hg10 mi
12:54 PM87 °FSunny.8 mph21%29.97 "Hg10 mi
11:54 AM86 °FSunny.13 mph21%29.98 "Hg10 mi
10:54 AM83 °FSunny.10 mph27%29.99 "Hg10 mi
9:54 AM79 °FSunny.No wind32%30.00 "Hg10 mi
8:54 AM76 °FSunny.3 mph37%30.01 "Hg10 mi
7:54 AM74 °FSunny.No wind40%30.01 "Hg10 mi
6:54 AM71 °FSunny.3 mph42%30.00 "Hg10 mi
5:54 AM67 °FClear.No wind55%30.00 "Hg10 mi
4:54 AM68 °FClear.3 mph53%29.98 "Hg10 mi
3:54 AM69 °FClear.7 mph47%29.96 "Hg10 mi
2:54 AM71 °FClear.6 mph41%29.96 "Hg10 mi
1:54 AM74 °FClear.3 mph32%29.96 "Hg10 mi
12:54 AM78 °FClear.5 mph20%29.95 "Hg10 mi
11:54 PM
Thu, Jun 23
79 °FClear.No wind18%29.94 "Hg10 mi
10:54 PM79 °FClear.6 mph19%29.94 "Hg10 mi
9:54 PM84 °FClear.3 mph17%29.93 "Hg10 mi
8:54 PM85 °FSunny.5 mph20%29.92 "Hg10 mi
7:54 PM92 °FSunny.8 mph12%29.91 "Hg10 mi
6:54 PM95 °FSunny.8 mph10%29.91 "Hg10 mi
5:54 PM96 °FSunny.10 mph10%29.91 "Hg10 mi
4:54 PM95 °FSunny.10 mph11%29.92 "Hg10 mi
Weather by CustomWeather, © 2016

See weather overviewHow to use our weather pages